Regional Weather Roundup
Issued by NWS Charleston, WV

Home | Current Version | Previous Version | Text Only | Print | Product List | Glossary On
Versions: 1 2 3 4 5 6 7 8 9 10 11 12 13 14 15 16 17 18 19 20 21 22 23 24 25 26 27 28 29 30 31 32 33 34 35 36 37 38 39 40 41 42 43 44 45 46 47 48 49 50
095
ASUS41 KRLX 241310
RWRRLX
West Virginia Regional Weather Roundup
National Weather Service Charleston WV
900 AM EDT SAT JUN 24 2017

Note: "fair" indicates few or no clouds below 12,000 feet with no
significant weather and/or obstructions to visibility.

WVZ003-241400-
Northern Panhandle of West Virginia

CITY           SKY/WX    TMP DP  RH WIND       PRES   REMARKS
WHEELING       SUNNY     67  61  81 W7        29.90R
$$

WVZ009-241400-
Northwest West Virginia

CITY           SKY/WX    TMP DP  RH WIND       PRES   REMARKS
PARKERSBURG    PTSUNNY   68  63  84 SW6       29.96R
$$

WVZ006-241400-
Western West Virginia

CITY           SKY/WX    TMP DP  RH WIND       PRES   REMARKS
HUNTINGTON     PTSUNNY   71  66  84 VRB7      29.96R
$$

WVZ015-241400-
West Central West Virginia

CITY           SKY/WX    TMP DP  RH WIND       PRES   REMARKS
CHARLESTON     PTSUNNY   69  64  84 W7        29.96R
$$

WVZ022-031-241400-
North Central West Virginia

CITY           SKY/WX    TMP DP  RH WIND       PRES   REMARKS
CLARKSBURG     CLOUDY    67  62  84 W7        29.93R
MORGANTOWN     PTSUNNY   68  61  78 W8        29.92R
$$

WVZ025-035-042-045-241400-
Southern West Virginia

CITY           SKY/WX    TMP DP  RH WIND       PRES   REMARKS
BECKLEY        CLOUDY    64  61  90 W5        30.03R
LOGAN          PTSUNNY   64  64 100 CALM      30.00R
BLUEFIELD      CLOUDY    64  59  83 W6        30.05R
LEWISBURG      CLOUDY    65  60  84 W5        30.00R
$$

WVZ047-241400-
Northern Mountains of West Virginia

CITY           SKY/WX    TMP DP  RH WIND       PRES   REMARKS
ELKINS         PTSUNNY   65  57  75 S6        29.97R
$$

WVZ052-241400-
Eastern Panhandle of West Virginia

CITY           SKY/WX    TMP DP  RH WIND       PRES   REMARKS
MARTINSBURG    MOSUNNY   76  64  66 W13       29.81R
PETERSBURG     MOSUNNY   76  61  61 W10       29.89R
$$




USA.gov is the U.S. government's official web portal to all federal, state and local government web resources and services.